Find Local Weather

World > North America > United States > New Hampshire

Littleton, New Hampshire Regional Weather

Lat: 44.31N, Lon: 71.77W
Wx Zone: NHZ003
Feedback

Littleton, NH Regional Weather

Expires:201905230800;;314553
ASUS41 KBOX 230710
RWRBOX

REGIONAL WEATHER ROUNDUP
NATIONAL WEATHER SERVICE BOSTON/NORTON MA
300 AM EDT THU MAY 23 2019

NOTE:  "FAIR" INDICATES FEW OR NO CLOUDS BELOW 12,000 FEET WITH NO 
SIGNIFICANT WEATHER AND/OR OBSTRUCTIONS TO VISIBILITY.


MEZ002-015-021-024-NHZ003-005-008-011-012-014-VTZ005-008-230800-
NORTHERN NEW ENGLAND
  
CITY           SKY/WX    TMP DP  RH WIND       PRES   REMARKS
PORTLAND ME    MOCLDY    51  38  60 CALM      30.24S                  
BANGOR ME      FAIR      42  40  92 CALM      30.24R                  
CONCORD NH     MOCLDY    51  43  74 S3        30.22F                  
MANCHESTER NH  CLOUDY    53  43  68 S7        30.22F                  
NASHUA NH      NOT AVBL                                               
PORTSMOUTH NH  LGT RAIN  52  41  66 S3        30.23F                  
JAFFREY NH     CLOUDY    52  42  69 S5        30.22F                  
KEENE NH       CLOUDY    53  43  68 S3        30.21F                  
BURLINGTON VT  CLOUDY    56  44  64 E3        30.14F                  
MT. WASHINGTON MOCLDY    32  27  80 W24         N/A  WCI  19          
$$


SKY/WX - Weather  TMP - Temperature  DP - Dew Point  RH - Relative Humidity
WIND - Wind Direction/Speed PRES - Barometric Pressure VSB - Visibility
WCI - Wind Chill Index E13G22 Wind - East Wind 13 mph/Gusts of 22 mph